IZ2WMD-13 Weather Reports


time (UTC)temp
C
wind
direction
speed
KPH
gust
KPH
rain 1hr
cm
rain 24hr
cm
rain mn
cm
humidity
%
barometer
mb
20260507203959 14 0.0 0.0 0.00 0.00 0.00 71 1013.4
20260507201954 14 0.0 0.0 0.00 0.00 0.00 71 1013.3
20260507195949 14 0.0 0.0 0.00 0.00 0.00 70 1012.9
20260507163901 20 0.0 0.0 0.00 0.00 0.00 49 1010.5
20260507115752 23 0.0 0.0 0.00 0.00 0.00 47 1011.4
20260507105738 22 0.0 0.0 0.00 0.00 0.00 55 1012.0
20260507103733 21 0.0 0.0 0.00 0.00 0.00 56 1012.1
20260507091713 19 0.0 0.0 0.00 0.00 0.00 62 1012.6
20260507085708 20 0.0 0.0 0.00 0.00 0.00 56 1012.6
20260507081659 16 0.0 0.0 0.00 0.00 0.00 75 1012.7
20260507075653 15 0.0 0.0 0.00 0.00 0.00 77 1012.8
20260507053619 11 0.0 0.0 0.00 0.00 0.00 94 1012.2
20260507051614 11 0.0 0.0 0.00 0.00 0.00 95 1012.1
20260507043604 11 0.0 0.0 0.00 0.00 0.00 96 1011.6
20260507035554 10 0.0 0.0 0.00 0.00 0.00 97 1011.4
20260507033549 10 0.0 0.0 0.00 0.00 0.00 97 1011.4
20260507025540 10 0.0 0.0 0.00 0.00 0.00 99 1011.3
20260507023534 10 0.0 0.0 0.00 0.00 0.00 98 1011.5
20260507021257 10 0.0 0.0 0.00 0.00 0.00 96 1011.4
20260507005237 11 0.0 0.0 0.00 0.00 0.00 96 1010.8
20260507003232 11 0.0 0.0 0.00 0.00 0.00 95 1010.8
20260507001227 11 0.0 0.0 0.00 0.00 0.00 97 1010.8
20260506233217 10 0.0 0.0 0.00 0.00 0.00 99 1010.9
20260506225207 10 0.0 0.0 0.00 0.00 0.00 98 1010.7
20260506221158 10 0.0 0.0 0.00 0.00 0.00 96 1010.7
20260506213148 11 0.0 0.0 0.00 0.00 0.00 93 1010.4